FW4699 Weather Reports


time (UTC)temp
F
wind
direction
speed
knots
gust
knots
rain 1hr
in
rain 24hr
in
rain mn
in
humidity
%
barometer
mb
20260510020034 61 155 3.5 8.7 0.00 0.00 0.00 66 1009.8
20260510015810 61 156 7.0 8.7 0.00 0.00 0.00 66 1010.2
20260510015610 61 178 4.3 7.8 0.00 0.00 0.00 66 1009.8
20260510015210 61 174 4.3 7.0 0.00 0.00 0.00 65 1010.2
20260510014615 61 140 7.8 9.6 0.00 0.00 0.00 66 1009.8
20260510014410 61 175 5.2 9.6 0.00 0.00 0.00 66 1009.8
20260510014210 61 172 7.0 9.6 0.00 0.00 0.00 65 1010.2
20260510014016 61 167 5.2 7.8 0.00 0.00 0.00 66 1010.2
20260510013610 61 173 5.2 7.8 0.00 0.00 0.00 65 1010.2
20260510013410 61 171 4.3 7.0 0.00 0.00 0.00 65 1010.2
20260510013024 61 176 5.2 7.8 0.00 0.00 0.00 65 1010.2
20260510012810 61 165 5.2 7.0 0.00 0.00 0.00 65 1010.2
20260510012410 61 176 7.0 7.8 0.00 0.00 0.00 65 1010.2
20260510012210 61 162 6.1 7.0 0.00 0.00 0.00 65 1010.2
20260510012018 61 173 4.3 8.7 0.00 0.00 0.00 65 1010.2
20260510011811 61 160 5.2 7.8 0.00 0.00 0.00 65 1010.2
20260510011410 61 166 5.2 7.0 0.00 0.00 0.00 65 1010.2
20260510011211 62 176 4.3 5.2 0.00 0.00 0.00 65 1010.2
20260510011017 62 171 1.7 7.8 0.00 0.00 0.00 65 1010.2
20260510010810 62 161 7.0 7.0 0.00 0.00 0.00 65 1010.5
20260510010610 62 161 5.2 7.8 0.00 0.00 0.00 64 1010.2
20260510010410 62 164 5.2 6.1 0.00 0.00 0.00 65 1010.5
20260510010210 62 168 4.3 7.0 0.00 0.00 0.00 64 1010.5
20260510010033 62 177 5.2 7.0 0.00 0.00 0.00 65 1010.5
20260510005810 62 166 5.2 7.8 0.00 0.00 0.00 64 1010.5
20260510005610 62 158 6.1 7.8 0.00 0.00 0.00 64 1010.5
20260510005411 62 176 5.2 6.1 0.00 0.00 0.00 64 1010.5
20260510005210 62 153 5.2 7.8 0.00 0.00 0.00 64 1010.5
20260510005016 62 153 5.2 7.0 0.00 0.00 0.00 64 1010.5
20260510004810 62 178 3.5 8.7 0.00 0.00 0.00 64 1010.8
20260510004610 62 162 5.2 6.1 0.00 0.00 0.00 64 1010.5
20260510004410 62 175 5.2 7.0 0.00 0.00 0.00 64 1010.5
20260510004209 62 178 5.2 7.0 0.00 0.00 0.00 64 1010.8
20260510004017 62 180 3.5 7.0 0.00 0.00 0.00 64 1010.5
20260510003610 62 175 5.2 7.0 0.00 0.00 0.00 64 1010.8
20260510003409 62 170 5.2 7.8 0.00 0.00 0.00 64 1010.8
20260510003210 62 163 3.5 7.0 0.00 0.00 0.00 64 1010.8
20260510003025 62 164 4.3 7.0 0.00 0.00 0.00 64 1010.8
20260510002810 62 180 5.2 7.0 0.00 0.00 0.00 64 1010.8
20260510002610 62 164 7.0 7.0 0.00 0.00 0.00 64 1010.8
20260510002410 62 171 3.5 6.1 0.00 0.00 0.00 64 1010.8
20260510002210 62 177 4.3 5.2 0.00 0.00 0.00 64 1010.8
20260510002017 62 180 3.5 7.0 0.00 0.00 0.00 63 1010.8
20260510001811 62 177 6.1 7.0 0.00 0.00 0.00 64 1010.8
20260510001610 62 166 5.2 7.0 0.00 0.00 0.00 64 1011.2
20260510001410 62 171 7.0 7.8 0.00 0.00 0.00 64 1011.2
20260510001209 62 155 6.1 7.0 0.00 0.00 0.00 63 1011.2
20260510001017 62 172 5.2 7.0 0.00 0.00 0.00 64 1011.2
20260510000610 62 167 5.2 7.0 0.00 0.00 0.00 64 1011.2
20260510000411 62 163 7.0 7.8 0.00 0.00 0.00 64 1011.2
20260510000038 63 156 6.1 7.8 0.00 0.00 0.00 64 1011.2
20260509235810 63 176 5.2 7.0 0.00 0.00 0.00 64 1011.2
20260509235610 63 169 5.2 6.1 0.00 0.00 0.00 64 1011.5
20260509235410 63 176 5.2 6.1 0.00 0.00 0.00 64 1011.2
20260509235210 63 159 5.2 7.8 0.00 0.00 0.00 64 1011.2
20260509235016 63 177 5.2 7.0 0.00 0.00 0.00 64 1011.2
20260509234810 63 164 6.1 7.0 0.00 0.00 0.00 64 1011.5
20260509234609 63 161 3.5 8.7 0.00 0.00 0.00 63 1011.2
20260509234410 63 158 3.5 8.7 0.00 0.00 0.00 64 1011.2
20260509234210 63 172 5.2 7.0 0.00 0.00 0.00 63 1011.2
20260509234017 63 165 6.1 7.0 0.00 0.00 0.00 64 1011.2
20260509233809 63 165 5.2 6.1 0.00 0.00 0.00 64 1011.2
20260509233610 63 175 5.2 6.1 0.00 0.00 0.00 63 1011.2
20260509233410 63 171 5.2 6.1 0.00 0.00 0.00 63 1011.2
20260509233025 63 160 5.2 6.1 0.00 0.00 0.00 64 1011.2
20260509232810 63 173 5.2 7.0 0.00 0.00 0.00 63 1011.5
20260509232610 63 161 6.1 7.0 0.00 0.00 0.00 63 1011.2
20260509232016 63 166 5.2 7.0 0.00 0.00 0.00 63 1011.5
20260509231810 63 147 6.1 8.7 0.00 0.00 0.00 63 1011.5
20260509231610 63 172 7.0 7.8 0.00 0.00 0.00 64 1011.5
20260509231410 63 142 7.0 7.0 0.00 0.00 0.00 64 1011.5
20260509231210 63 173 5.2 7.0 0.00 0.00 0.00 64 1011.5
20260509230810 63 173 5.2 7.0 0.00 0.00 0.00 64 1011.2
20260509230610 63 174 5.2 7.8 0.00 0.00 0.00 64 1011.5
20260509230411 63 167 6.1 7.8 0.00 0.00 0.00 64 1011.5
20260509230210 63 166 5.2 7.0 0.00 0.00 0.00 64 1011.9
20260509230034 63 170 6.1 6.1 0.00 0.00 0.00 64 1011.5
20260509225810 63 173 5.2 6.1 0.00 0.00 0.00 64 1011.5
20260509225410 63 156 7.0 7.8 0.00 0.00 0.00 64 1011.5
20260509225210 63 165 6.1 7.0 0.00 0.00 0.00 65 1011.5
20260509225016 63 172 5.2 8.7 0.00 0.00 0.00 64 1011.5
20260509224810 63 170 5.2 7.0 0.00 0.00 0.00 65 1011.5
20260509224610 63 170 4.3 7.0 0.00 0.00 0.00 65 1011.5
20260509224410 63 173 5.2 8.7 0.00 0.00 0.00 65 1011.5
20260509224212 63 167 5.2 7.8 0.00 0.00 0.00 65 1011.5
20260509224016 63 157 6.1 7.0 0.00 0.00 0.00 65 1011.5
20260509223810 63 167 5.2 7.0 0.00 0.00 0.00 65 1011.9
20260509223610 63 154 6.1 7.0 0.00 0.00 0.00 66 1011.5
20260509223410 63 174 5.2 5.2 0.00 0.00 0.00 66 1011.5
20260509223210 63 174 4.3 7.0 0.00 0.00 0.00 65 1011.5
20260509223025 63 176 5.2 7.0 0.00 0.00 0.00 66 1011.5
20260509222810 63 168 5.2 6.1 0.00 0.00 0.00 66 1011.5
20260509222611 63 173 5.2 6.1 0.00 0.00 0.00 66 1011.5
20260509222409 63 179 3.5 7.0 0.00 0.00 0.00 65 1011.5
20260509222210 63 147 6.1 7.8 0.00 0.00 0.00 66 1011.5
20260509222016 63 161 3.5 7.0 0.00 0.00 0.00 66 1011.5
20260509221810 63 145 3.5 7.0 0.00 0.00 0.00 67 1011.5
20260509221610 63 174 5.2 6.1 0.00 0.00 0.00 67 1011.5
20260509221410 63 174 6.1 7.0 0.00 0.00 0.00 67 1011.5
20260509221210 63 160 6.1 7.8 0.00 0.00 0.00 67 1011.5
20260509221017 63 176 4.3 7.8 0.00 0.00 0.00 67 1011.5
20260509220810 62 163 6.1 7.8 0.00 0.00 0.00 68 1011.5
20260509220610 62 171 4.3 7.0 0.00 0.00 0.00 68 1011.5
20260509220411 62 173 6.1 7.8 0.00 0.00 0.00 68 1011.5
20260509220210 62 147 7.8 7.8 0.00 0.00 0.00 68 1011.5
20260509220034 62 176 4.3 7.0 0.00 0.00 0.00 69 1011.5
20260509215810 62 173 5.2 7.0 0.00 0.00 0.00 69 1011.5
20260509215610 62 173 4.3 7.0 0.00 0.00 0.00 69 1011.5
20260509215410 62 170 4.3 7.0 0.00 0.00 0.00 69 1011.5
20260509215210 62 174 5.2 6.1 0.00 0.00 0.00 70 1011.5
20260509214810 62 157 3.5 7.0 0.00 0.00 0.00 70 1011.5
20260509214610 62 171 4.3 6.1 0.00 0.00 0.00 70 1011.5
20260509214410 62 168 4.3 6.1 0.00 0.00 0.00 70 1011.5
20260509214210 62 174 5.2 6.1 0.00 0.00 0.00 70 1011.5
20260509213810 62 177 6.1 7.0 0.00 0.00 0.00 70 1011.5
20260509213610 62 173 6.1 7.0 0.00 0.00 0.00 71 1011.5
20260509212810 62 175 5.2 6.1 0.00 0.00 0.00 71 1011.5
20260509212615 62 173 5.2 7.0 0.00 0.00 0.00 71 1011.5
20260509212410 62 173 5.2 7.0 0.00 0.00 0.00 71 1011.9
20260509212210 62 171 5.2 7.0 0.00 0.00 0.00 71 1011.9
20260509212017 62 178 6.1 7.0 0.00 0.00 0.00 71 1011.5
20260509211810 62 174 6.1 7.0 0.00 0.00 0.00 71 1011.5
20260509211610 62 177 6.1 7.0 0.00 0.00 0.00 71 1011.5
20260509211410 62 180 7.0 7.0 0.00 0.00 0.00 71 1011.5
20260509211210 62 173 5.2 7.0 0.00 0.00 0.00 71 1011.5
20260509211016 62 170 6.1 7.0 0.00 0.00 0.00 71 1011.5
20260509210810 62 174 6.1 7.0 0.00 0.00 0.00 71 1011.5
20260509210610 62 172 7.0 7.0 0.00 0.00 0.00 71 1011.2
20260509210410 62 171 5.2 7.0 0.00 0.00 0.00 71 1011.5
20260509210210 63 174 7.0 7.0 0.00 0.00 0.00 71 1011.5
20260509210034 63 175 6.1 7.0 0.00 0.00 0.00 72 1011.5
20260509205810 63 173 6.1 7.0 0.00 0.00 0.00 71 1011.2
20260509205610 63 169 7.0 7.0 0.00 0.00 0.00 71 1011.5
20260509205211 63 174 5.2 7.0 0.00 0.00 0.00 71 1011.5
20260509205016 63 177 7.0 7.0 0.00 0.00 0.00 71 1011.5
20260509204811 63 176 6.1 7.0 0.00 0.00 0.00 71 1011.5
20260509204610 63 176 6.1 7.0 0.00 0.00 0.00 71 1011.5
20260509204410 63 175 7.0 7.0 0.00 0.00 0.00 71 1011.2
20260509204210 63 173 6.1 7.0 0.00 0.00 0.00 71 1011.9
20260509203815 63 173 6.1 7.0 0.00 0.00 0.00 71 1011.2
20260509203610 63 171 4.3 7.0 0.00 0.00 0.00 70 1011.5
20260509203410 64 173 5.2 7.0 0.00 0.00 0.00 70 1011.5
20260509203211 64 176 5.2 7.8 0.00 0.00 0.00 70 1011.5
20260509203025 64 177 5.2 6.1 0.00 0.00 0.00 70 1011.5
20260509202016 64 177 5.2 6.1 0.00 0.00 0.00 69 1011.5
20260509201811 65 173 5.2 6.1 0.00 0.00 0.00 68 1011.5
20260509201610 65 175 6.1 6.1 0.00 0.00 0.00 68 1011.5
20260509201411 65 178 6.1 6.1 0.00 0.00 0.00 67 1011.5
20260509201211 65 176 5.2 6.1 0.00 0.00 0.00 67 1011.5
20260509201017 65 178 5.2 6.1 0.00 0.00 0.00 67 1011.5
20260509200810 65 175 6.1 6.1 0.00 0.00 0.00 67 1011.5
20260509200610 65 174 6.1 6.1 0.00 0.00 0.00 66 1011.2
20260509200411 66 175 5.2 6.1 0.00 0.00 0.00 66 1011.5
20260509200033 66 175 5.2 6.1 0.00 0.00 0.00 66 1011.5
20260509195810 66 174 5.2 6.1 0.00 0.00 0.00 65 1011.2
20260509195609 66 176 5.2 6.1 0.00 0.00 0.00 65 1011.5
20260509195410 66 178 5.2 6.1 0.00 0.00 0.00 65 1011.5
20260509195209 66 176 5.2 6.1 0.00 0.00 0.00 64 1011.2
20260509195015 67 176 6.1 7.0 0.00 0.00 0.00 64 1011.2
20260509194810 67 177 6.1 6.1 0.00 0.00 0.00 64 1011.2
20260509194610 67 179 5.2 6.1 0.00 0.00 0.00 63 1011.2
20260509194410 67 179 5.2 6.1 0.00 0.00 0.00 63 1011.5
20260509194016 68 179 5.2 6.1 0.00 0.00 0.00 62 1011.2
20260509193810 68 179 5.2 6.1 0.00 0.00 0.00 61 1011.2
20260509193610 68 179 5.2 6.1 0.00 0.00 0.00 61 1011.2
20260509193410 68 179 5.2 6.1 0.00 0.00 0.00 61 1011.2
20260509193024 68 179 5.2 6.1 0.00 0.00 0.00 61 1011.2
20260509192812 68 179 5.2 6.1 0.00 0.00 0.00 61 1011.2
20260509192610 68 179 5.2 6.1 0.00 0.00 0.00 60 1011.2
20260509192410 69 179 5.2 6.1 0.00 0.00 0.00 60 1011.2
20260509192017 69 179 5.2 6.1 0.00 0.00 0.00 59 1010.8
20260509191810 69 179 5.2 6.1 0.00 0.00 0.00 59 1011.2
20260509191610 69 179 5.2 6.1 0.00 0.00 0.00 59 1011.2
20260509191412 69 179 5.2 6.1 0.00 0.00 0.00 58 1010.8
20260509191210 69 179 5.2 6.1 0.00 0.00 0.00 58 1010.8
20260509191017 69 179 5.2 6.1 0.00 0.00 0.00 58 1010.8
20260509190610 70 179 5.2 6.1 0.00 0.00 0.00 57 1011.2
20260509190410 70 179 5.2 6.1 0.00 0.00 0.00 57 1010.8
20260509190210 70 179 5.2 6.1 0.00 0.00 0.00 57 1011.2
20260509190034 70 179 5.2 6.1 0.00 0.00 0.00 56 1010.8
20260509185810 70 179 5.2 6.1 0.00 0.00 0.00 56 1010.8
20260509185609 71 179 5.2 6.1 0.00 0.00 0.00 56 1010.8
20260509185410 71 179 5.2 6.1 0.00 0.00 0.00 55 1010.8
20260509185210 71 179 5.2 6.1 0.00 0.00 0.00 55 1010.8
20260509185016 71 179 5.2 6.1 0.00 0.00 0.00 55 1011.2
20260509184810 71 179 5.2 6.1 0.00 0.00 0.00 55 1010.8
20260509184410 71 178 6.1 7.0 0.00 0.00 0.00 55 1011.2
20260509184016 71 166 6.1 7.0 0.00 0.00 0.00 54 1010.8
20260509183810 72 167 6.1 7.0 0.00 0.00 0.00 53 1010.8
20260509183610 72 149 6.1 7.8 0.00 0.00 0.00 54 1010.8
20260509183410 72 172 5.2 7.0 0.00 0.00 0.00 53 1010.8
20260509183210 72 173 5.2 6.1 0.00 0.00 0.00 53 1010.8
20260509182810 72 176 3.5 6.1 0.00 0.00 0.00 53 1010.8
20260509182610 72 171 5.2 6.1 0.00 0.00 0.00 52 1010.5
20260509182411 72 155 5.2 9.6 0.00 0.00 0.00 52 1010.5
20260509182210 72 172 3.5 7.0 0.00 0.00 0.00 52 1010.8
20260509181810 72 166 3.5 7.0 0.00 0.00 0.00 52 1010.8
20260509181610 72 179 4.3 7.8 0.00 0.00 0.00 51 1010.5
20260509181410 72 152 5.2 9.6 0.00 0.00 0.00 51 1010.5
20260509181211 72 147 7.0 8.7 0.00 0.00 0.00 51 1010.8
20260509181016 72 160 4.3 7.8 0.00 0.00 0.00 51 1010.8
20260509180810 73 138 3.5 7.8 0.00 0.00 0.00 51 1010.8
20260509180610 73 143 7.0 9.6 0.00 0.00 0.00 51 1010.5
20260509175811 73 149 6.1 7.8 0.00 0.00 0.00 50 1010.5
20260509175610 73 155 5.2 9.6 0.00 0.00 0.00 50 1010.5
20260509175410 73 161 5.2 7.0 0.00 0.00 0.00 51 1010.8
20260509175211 73 173 5.2 7.8 0.00 0.00 0.00 51 1010.8
20260509175016 73 142 5.2 7.0 0.00 0.00 0.00 51 1010.8
20260509174610 73 154 5.2 7.8 0.00 0.00 0.00 51 1010.8
20260509174410 73 153 6.1 7.8 0.00 0.00 0.00 50 1010.8
20260509174210 73 170 5.2 6.1 0.00 0.00 0.00 51 1010.8
20260509173810 73 148 4.3 7.0 0.00 0.00 0.00 51 1010.5
20260509173410 73 180 3.5 7.8 0.00 0.00 0.00 51 1010.8
20260509173210 73 149 5.2 6.1 0.00 0.00 0.00 51 1010.5
20260509173025 73 137 5.2 7.0 0.00 0.00 0.00 50 1010.8
20260509172810 74 163 4.3 7.0 0.00 0.00 0.00 50 1010.8
20260509172611 74 161 4.3 8.7 0.00 0.00 0.00 50 1010.8
20260509172410 74 145 4.3 7.8 0.00 0.00 0.00 50 1010.8
20260509172210 74 170 6.1 9.6 0.00 0.00 0.00 49 1010.8
20260509172016 74 174 5.2 9.6 0.00 0.00 0.00 49 1010.8
20260509171810 74 160 7.0 8.7 0.00 0.00 0.00 49 1010.8
20260509171410 74 164 6.1 7.0 0.00 0.00 0.00 50 1010.8
20260509171210 74 184 6.1 7.8 0.00 0.00 0.00 50 1010.8
20260509171017 74 160 4.3 8.7 0.00 0.00 0.00 50 1011.2
20260509170810 74 184 5.2 7.8 0.00 0.00 0.00 51 1010.8
20260509170610 74 151 3.5 7.0 0.00 0.00 0.00 50 1010.8
20260509170410 74 172 7.0 7.8 0.00 0.00 0.00 50 1010.8
20260509170210 74 169 7.0 7.8 0.00 0.00 0.00 50 1011.2
20260509170034 74 170 4.3 7.0 0.00 0.00 0.00 49 1010.8
20260509165810 74 175 6.1 7.8 0.00 0.00 0.00 49 1010.8
20260509165611 74 164 7.0 9.6 0.00 0.00 0.00 49 1010.8
20260509165410 74 178 6.1 7.8 0.00 0.00 0.00 50 1010.8
20260509165210 74 170 5.2 7.0 0.00 0.00 0.00 49 1011.2
20260509165017 75 158 5.2 8.7 0.00 0.00 0.00 48 1011.2
20260509164810 75 87 3.5 7.0 0.00 0.00 0.00 49 1011.2
20260509164610 75 159 5.2 9.6 0.00 0.00 0.00 48 1011.2
20260509164210 75 134 7.0 8.7 0.00 0.00 0.00 49 1011.2
20260509164022 75 159 5.2 9.6 0.00 0.00 0.00 49 1011.2
20260509163810 75 153 3.5 9.6 0.00 0.00 0.00 49 1010.8
20260509163410 75 173 4.3 7.8 0.00 0.00 0.00 50 1010.8
20260509163210 75 164 5.2 7.8 0.00 0.00 0.00 49 1011.2
20260509163025 75 150 7.0 7.8 0.00 0.00 0.00 48 1011.2
20260509162810 75 138 7.0 7.8 0.00 0.00 0.00 48 1011.2
20260509162610 75 145 5.2 9.6 0.00 0.00 0.00 49 1011.2
20260509162410 75 171 6.1 7.8 0.00 0.00 0.00 49 1011.2
20260509162212 75 168 3.5 7.0 0.00 0.00 0.00 49 1011.2
20260509162016 75 147 6.1 9.6 0.00 0.00 0.00 48 1011.2
20260509161811 75 149 5.2 9.6 0.00 0.00 0.00 48 1010.8
20260509161410 75 166 4.3 9.6 0.00 0.00 0.00 48 1011.2
20260509161210 75 167 5.2 7.0 0.00 0.00 0.00 48 1011.2
20260509161016 75 177 4.3 7.0 0.00 0.00 0.00 47 1010.8
20260509160810 75 151 5.2 11.3 0.00 0.00 0.00 48 1011.2
20260509160610 75 157 4.3 8.7 0.00 0.00 0.00 48 1011.2
20260509160410 75 163 6.1 11.3 0.00 0.00 0.00 48 1010.8
20260509160211 75 162 5.2 9.6 0.00 0.00 0.00 48 1011.2
20260509160034 75 175 7.0 7.8 0.00 0.00 0.00 48 1011.2
20260509155810 75 166 4.3 8.7 0.00 0.00 0.00 48 1011.2
20260509155610 75 120 2.6 8.7 0.00 0.00 0.00 48 1011.2
20260509155410 75 165 2.6 8.7 0.00 0.00 0.00 48 1011.2
20260509155210 75 160 5.2 7.8 0.00 0.00 0.00 49 1011.2
20260509155018 75 172 5.2 9.6 0.00 0.00 0.00 48 1011.2
20260509154811 75 129 7.0 9.6 0.00 0.00 0.00 48 1011.2
20260509154410 75 157 7.0 7.8 0.00 0.00 0.00 48 1011.2
20260509154211 75 158 5.2 7.8 0.00 0.00 0.00 48 1011.2
20260509153810 75 152 7.8 7.8 0.00 0.00 0.00 49 1011.2
20260509153610 75 158 2.6 5.2 0.00 0.00 0.00 49 1011.5
20260509153410 74 152 2.6 9.6 0.00 0.00 0.00 49 1011.5
20260509153210 74 148 6.1 9.6 0.00 0.00 0.00 49 1011.5
20260509153025 74 162 4.3 7.8 0.00 0.00 0.00 49 1011.5
20260509152810 74 137 6.1 7.0 0.00 0.00 0.00 50 1011.5
20260509152610 74 145 5.2 7.8 0.00 0.00 0.00 51 1011.5
20260509152410 74 174 5.2 7.0 0.00 0.00 0.00 50 1011.5
20260509152210 74 166 5.2 11.3 0.00 0.00 0.00 50 1011.9
20260509152019 74 168 6.1 9.6 0.00 0.00 0.00 50 1011.5
20260509151810 74 158 7.8 11.3 0.00 0.00 0.00 50 1011.9
20260509151610 74 165 5.2 7.8 0.00 0.00 0.00 51 1011.9
20260509151411 74 151 7.0 7.8 0.00 0.00 0.00 51 1011.9
20260509151210 74 176 3.5 7.0 0.00 0.00 0.00 51 1011.5
20260509151017 73 179 4.3 7.0 0.00 0.00 0.00 51 1011.9
20260509150810 73 152 6.1 9.6 0.00 0.00 0.00 52 1011.9
20260509150611 73 157 5.2 6.1 0.00 0.00 0.00 51 1011.9
20260509150410 73 161 5.2 7.0 0.00 0.00 0.00 51 1011.9
20260509150211 74 170 5.2 7.8 0.00 0.00 0.00 51 1011.9
20260509150035 74 157 7.0 8.7 0.00 0.00 0.00 51 1011.9
20260509145810 74 111 3.5 7.8 0.00 0.00 0.00 52 1011.9
20260509145610 74 147 6.1 8.7 0.00 0.00 0.00 52 1011.9
20260509145210 74 156 5.2 7.0 0.00 0.00 0.00 51 1011.9
20260509144610 74 122 3.5 8.7 0.00 0.00 0.00 51 1011.9
20260509144410 74 180 6.1 7.0 0.00 0.00 0.00 51 1011.9
20260509144017 74 140 6.1 7.8 0.00 0.00 0.00 50 1011.9
20260509143810 74 179 4.3 7.8 0.00 0.00 0.00 50 1011.9
20260509143610 74 140 4.3 8.7 0.00 0.00 0.00 50 1011.9
20260509143410 74 121 7.0 9.6 0.00 0.00 0.00 50 1011.9
20260509143210 74 154 4.3 9.6 0.00 0.00 0.00 50 1011.9
20260509143026 74 148 7.0 9.6 0.00 0.00 0.00 50 1011.9
20260509142210 74 162 6.1 7.0 0.00 0.00 0.00 50 1011.9
20260509141610 74 173 3.5 11.3 0.00 0.00 0.00 50 1011.9
20260509141410 74 111 6.1 7.8 0.00 0.00 0.00 51 1011.9
20260509141210 73 163 4.3 11.3 0.00 0.00 0.00 50 1011.9
20260509141017 73 125 7.0 7.8 0.00 0.00 0.00 51 1011.9
20260509140810 73 127 2.6 8.7 0.00 0.00 0.00 51 1011.9
20260509140610 73 168 4.3 7.8 0.00 0.00 0.00 51 1011.9
20260509140411 74 175 5.2 7.0 0.00 0.00 0.00 50 1011.9
20260509140211 74 176 5.2 7.8 0.00 0.00 0.00 50 1011.9
20260509140035 74 174 5.2 7.8 0.00 0.00 0.00 51 1011.9
20260509135611 74 164 5.2 7.0 0.00 0.00 0.00 52 1011.9
20260509135210 74 147 6.1 8.7 0.00 0.00 0.00 50 1011.9
20260509135016 75 153 5.2 7.8 0.00 0.00 0.00 50 1011.9
20260509134812 75 167 7.0 9.6 0.00 0.00 0.00 50 1011.9
20260509134610 75 158 4.3 8.7 0.00 0.00 0.00 49 1011.9
20260509134410 75 161 5.2 9.6 0.00 0.00 0.00 50 1011.9
20260509134210 75 155 6.1 12.2 0.00 0.00 0.00 51 1011.9
20260509133810 75 138 7.0 7.8 0.00 0.00 0.00 48 1011.9
20260509133610 75 152 5.2 9.6 0.00 0.00 0.00 49 1011.9
20260509133210 75 142 7.0 7.8 0.00 0.00 0.00 48 1011.9
20260509133026 75 174 4.3 9.6 0.00 0.00 0.00 49 1011.9
20260509132810 75 154 7.0 8.7 0.00 0.00 0.00 49 1012.2
20260509132611 75 149 7.0 8.7 0.00 0.00 0.00 50 1012.2
20260509132210 75 156 6.1 7.8 0.00 0.00 0.00 49 1012.2
20260509132018 75 175 3.5 12.2 0.00 0.00 0.00 48 1012.2
20260509131810 75 170 7.0 9.6 0.00 0.00 0.00 49 1012.2
20260509131610 75 171 6.1 8.7 0.00 0.00 0.00 48 1012.2
20260509131410 76 163 5.2 8.7 0.00 0.00 0.00 47 1012.2
20260509131210 76 168 5.2 8.7 0.00 0.00 0.00 48 1012.2
20260509131018 76 148 2.6 8.7 0.00 0.00 0.00 48 1012.2
20260509130810 76 157 2.6 9.6 0.00 0.00 0.00 48 1012.2
20260509130610 76 170 4.3 7.8 0.00 0.00 0.00 49 1012.2
20260509130411 76 146 6.1 11.3 0.00 0.00 0.00 48 1011.9
20260509130211 76 161 3.5 9.6 0.00 0.00 0.00 48 1011.9
20260509130035 76 149 3.5 9.6 0.00 0.00 0.00 47 1012.2
20260509125810 77 165 5.2 10.4 0.00 0.00 0.00 47 1012.2
20260509125611 77 122 7.8 9.6 0.00 0.00 0.00 47 1012.2
20260509125411 77 139 7.8 9.6 0.00 0.00 0.00 47 1012.5
20260509125210 77 169 5.2 7.8 0.00 0.00 0.00 47 1012.2
20260509125017 77 164 3.5 7.0 0.00 0.00 0.00 48 1012.2
20260509124811 77 162 5.2 11.3 0.00 0.00 0.00 48 1012.2
20260509124610 77 171 5.2 11.3 0.00 0.00 0.00 48 1012.5
20260509124410 77 158 5.2 7.8 0.00 0.00 0.00 47 1012.2
20260509124210 77 174 4.3 9.6 0.00 0.00 0.00 47 1012.5
20260509124016 77 132 6.1 11.3 0.00 0.00 0.00 47 1012.2
20260509123810 77 142 7.8 11.3 0.00 0.00 0.00 47 1012.2
20260509123610 77 171 5.2 8.7 0.00 0.00 0.00 46 1012.5
20260509123410 77 123 7.8 10.4 0.00 0.00 0.00 46 1012.9
20260509123025 78 146 5.2 7.0 0.00 0.00 0.00 47 1012.5
20260509122810 78 183 3.5 7.8 0.00 0.00 0.00 48 1012.5
20260509122410 77 165 4.3 9.6 0.00 0.00 0.00 47 1012.5
20260509122017 77 159 3.5 8.7 0.00 0.00 0.00 47 1012.5
20260509121810 77 166 5.2 7.8 0.00 0.00 0.00 46 1012.9
20260509121610 77 151 7.0 10.4 0.00 0.00 0.00 46 1012.9
20260509121412 77 169 4.3 8.7 0.00 0.00 0.00 45 1012.9
20260509121210 77 156 7.0 12.2 0.00 0.00 0.00 46 1012.9
20260509121017 78 176 7.0 7.8 0.00 0.00 0.00 47 1012.9
20260509120810 78 157 7.0 9.6 0.00 0.00 0.00 46 1012.9
20260509120611 78 150 4.3 9.6 0.00 0.00 0.00 46 1013.2
20260509120210 78 156 7.8 10.4 0.00 0.00 0.00 48 1012.9
20260509120035 78 155 6.1 9.6 0.00 0.00 0.00 46 1012.9
20260509115810 78 170 9.6 11.3 0.00 0.00 0.00 46 1012.5
20260509115610 78 165 8.7 11.3 0.00 0.00 0.00 46 1012.9
20260509115017 78 164 3.5 9.6 0.00 0.00 0.00 47 1012.9
20260509114810 77 143 7.0 7.8 0.00 0.00 0.00 48 1012.9
20260509114610 77 155 5.2 7.0 0.00 0.00 0.00 48 1012.9
20260509114410 77 126 3.5 7.8 0.00 0.00 0.00 48 1012.9
20260509114210 77 155 5.2 7.8 0.00 0.00 0.00 48 1013.2
20260509114017 78 139 7.0 10.4 0.00 0.00 0.00 48 1012.9
20260509113810 78 141 6.1 9.6 0.00 0.00 0.00 48 1013.2
20260509113610 78 147 4.3 7.8 0.00 0.00 0.00 48 1013.2
20260509113411 78 151 5.2 7.8 0.00 0.00 0.00 49 1013.2
20260509113210 78 174 3.5 8.7 0.00 0.00 0.00 48 1013.2
20260509113025 77 134 7.0 8.7 0.00 0.00 0.00 49 1012.9
20260509112610 77 150 2.6 8.7 0.00 0.00 0.00 48 1013.2
20260509112410 77 157 5.2 7.0 0.00 0.00 0.00 49 1013.2
20260509112210 77 160 4.3 7.0 0.00 0.00 0.00 50 1013.2
20260509112016 77 166 2.6 7.0 0.00 0.00 0.00 51 1013.5
20260509111810 77 155 3.5 9.6 0.00 0.00 0.00 52 1013.2
20260509111610 77 165 3.5 7.0 0.00 0.00 0.00 53 1013.2
20260509111017 76 162 2.6 7.8 0.00 0.00 0.00 52 1013.5
20260509110812 76 178 3.5 7.8 0.00 0.00 0.00 51 1013.5
20260509110610 76 175 5.2 7.8 0.00 0.00 0.00 52 1013.5
20260509110411 75 163 3.5 9.6 0.00 0.00 0.00 51 1013.5
20260509110210 75 164 4.3 7.8 0.00 0.00 0.00 53 1013.5
20260509110036 75 169 7.0 8.7 0.00 0.00 0.00 51 1013.5
20260509105610 75 151 9.6 9.6 0.00 0.00 0.00 52 1013.5
20260509105210 75 157 5.2 8.7 0.00 0.00 0.00 52 1013.5
20260509105017 75 151 7.0 7.0 0.00 0.00 0.00 52 1013.5
20260509104811 75 159 3.5 7.0 0.00 0.00 0.00 54 1013.5
20260509104610 75 154 5.2 7.8 0.00 0.00 0.00 52 1013.5
20260509104410 75 155 7.0 8.7 0.00 0.00 0.00 52 1013.5
20260509104210 75 171 7.0 7.8 0.00 0.00 0.00 53 1013.5
20260509104017 75 171 6.1 8.7 0.00 0.00 0.00 52 1013.5
20260509103810 75 164 3.5 7.0 0.00 0.00 0.00 55 1013.5
20260509103410 74 158 5.2 7.0 0.00 0.00 0.00 55 1013.9
20260509103210 74 138 2.6 7.0 0.00 0.00 0.00 56 1013.9
20260509103026 74 165 3.5 7.0 0.00 0.00 0.00 56 1013.9
20260509102612 74 175 6.1 7.8 0.00 0.00 0.00 56 1013.5
20260509102411 73 154 3.5 7.8 0.00 0.00 0.00 56 1013.9
20260509102210 73 139 7.0 7.8 0.00 0.00 0.00 56 1013.9
20260509102018 73 163 3.5 7.0 0.00 0.00 0.00 57 1013.9
20260509101810 73 171 4.3 7.8 0.00 0.00 0.00 58 1013.5
20260509101610 73 147 4.3 8.7 0.00 0.00 0.00 58 1013.9
20260509101210 73 155 5.2 8.7 0.00 0.00 0.00 57 1013.9
20260509100811 73 124 8.7 8.7 0.00 0.00 0.00 57 1013.9
20260509100035 72 150 5.2 7.8 0.00 0.00 0.00 58 1013.9
20260509095810 71 174 5.2 7.0 0.00 0.00 0.00 60 1013.9
20260509095610 71 176 6.1 7.0 0.00 0.00 0.00 59 1013.9
20260509095410 71 176 4.3 7.8 0.00 0.00 0.00 60 1013.9
20260509095210 71 149 7.0 8.7 0.00 0.00 0.00 60 1013.9
20260509095016 71 148 4.3 7.8 0.00 0.00 0.00 59 1013.9
20260509094811 71 163 4.3 7.8 0.00 0.00 0.00 59 1013.9
20260509094610 71 169 6.1 9.6 0.00 0.00 0.00 61 1013.9
20260509094410 71 152 6.1 9.6 0.00 0.00 0.00 61 1013.9
20260509094211 71 160 3.5 7.8 0.00 0.00 0.00 61 1014.2
20260509093810 70 171 3.5 5.2 0.00 0.00 0.00 63 1014.2
20260509093610 70 164 4.3 7.0 0.00 0.00 0.00 63 1013.9
20260509093412 70 148 7.0 7.0 0.00 0.00 0.00 61 1014.2
20260509093210 70 159 5.2 9.6 0.00 0.00 0.00 63 1014.2
20260509093025 70 150 5.2 8.7 0.00 0.00 0.00 63 1014.2
20260509092810 69 151 5.2 8.7 0.00 0.00 0.00 63 1013.9
20260509092610 69 179 3.5 7.8 0.00 0.00 0.00 65 1014.2
20260509092410 69 174 4.3 6.1 0.00 0.00 0.00 65 1014.2
20260509092210 69 163 4.3 7.8 0.00 0.00 0.00 65 1014.2
20260509092019 68 159 4.3 7.0 0.00 0.00 0.00 67 1014.2
20260509091810 68 154 6.1 7.8 0.00 0.00 0.00 65 1014.2
20260509091410 68 161 5.2 9.6 0.00 0.00 0.00 65 1014.2
20260509091210 67 162 6.1 7.8 0.00 0.00 0.00 65 1014.2
20260509091016 67 147 6.1 7.0 0.00 0.00 0.00 66 1014.2
20260509090810 67 162 3.5 6.1 0.00 0.00 0.00 67 1014.2
20260509090411 67 173 4.3 9.6 0.00 0.00 0.00 66 1013.9
20260509090210 67 142 7.8 9.6 0.00 0.00 0.00 66 1014.2
20260509090033 67 174 5.2 7.8 0.00 0.00 0.00 66 1014.2
20260509085810 67 165 3.5 7.8 0.00 0.00 0.00 67 1014.2
20260509085610 67 171 4.3 6.1 0.00 0.00 0.00 68 1014.2
20260509085410 67 148 6.1 7.0 0.00 0.00 0.00 68 1014.2
20260509085210 66 160 7.0 7.0 0.00 0.00 0.00 69 1014.2
20260509085017 66 165 3.5 7.0 0.00 0.00 0.00 69 1014.2
20260509084610 66 167 5.2 7.8 0.00 0.00 0.00 70 1014.2
20260509084410 66 145 7.0 7.8 0.00 0.00 0.00 71 1014.2
20260509084016 66 155 6.1 6.1 0.00 0.00 0.00 71 1014.2
20260509083810 66 180 4.3 7.8 0.00 0.00 0.00 70 1014.2
20260509083610 65 146 7.0 8.7 0.00 0.00 0.00 71 1014.2
20260509083410 65 150 6.1 7.0 0.00 0.00 0.00 72 1014.2
20260509083210 65 156 4.3 7.8 0.00 0.00 0.00 71 1014.2
20260509083026 65 163 4.3 7.0 0.00 0.00 0.00 72 1014.2
20260509082811 65 159 4.3 7.0 0.00 0.00 0.00 73 1014.2
20260509082609 65 165 6.1 7.0 0.00 0.00 0.00 75 1014.6
20260509082410 64 159 3.5 7.8 0.00 0.00 0.00 74 1014.2
20260509082210 64 158 4.3 9.6 0.00 0.00 0.00 74 1014.6
20260509082016 64 166 4.3 7.8 0.00 0.00 0.00 75 1014.6
20260509081810 64 138 7.8 7.8 0.00 0.00 0.00 75 1014.6
20260509081610 64 145 5.2 8.7 0.00 0.00 0.00 75 1014.6
20260509081410 63 150 6.1 7.0 0.00 0.00 0.00 77 1014.2
20260509081210 63 160 2.6 7.0 0.00 0.00 0.00 77 1014.6
20260509081017 63 153 5.2 7.0 0.00 0.00 0.00 77 1014.2
20260509080610 62 160 3.5 7.0 0.00 0.00 0.00 77 1014.6
20260509080410 62 142 5.2 8.7 0.00 0.00 0.00 78 1014.2
20260509080210 62 169 5.2 7.8 0.00 0.00 0.00 77 1014.6
20260509080035 62 168 5.2 7.8 0.00 0.00 0.00 78 1014.2
20260509075410 62 177 7.0 7.8 0.00 0.00 0.00 78 1014.2
20260509075210 62 161 7.0 8.7 0.00 0.00 0.00 78 1014.2
20260509075016 61 173 5.2 7.8 0.00 0.00 0.00 78 1014.6
20260509074810 61 169 4.3 8.7 0.00 0.00 0.00 79 1014.2
20260509074611 61 156 7.0 9.6 0.00 0.00 0.00 79 1014.6
20260509074410 61 134 7.8 10.4 0.00 0.00 0.00 80 1014.6
20260509074210 61 155 5.2 9.6 0.00 0.00 0.00 80 1014.6
20260509073810 60 158 4.3 7.8 0.00 0.00 0.00 81 1014.6
20260509073610 60 164 5.2 7.8 0.00 0.00 0.00 81 1014.6
20260509073412 60 157 4.3 7.8 0.00 0.00 0.00 82 1014.6
20260509073210 60 138 7.8 7.8 0.00 0.00 0.00 83 1014.6
20260509072810 59 161 3.5 7.0 0.00 0.00 0.00 83 1014.6
20260509072610 59 163 4.3 7.0 0.00 0.00 0.00 83 1014.6
20260509072410 59 152 6.1 7.0 0.00 0.00 0.00 83 1014.6
20260509072016 58 161 6.1 7.0 0.00 0.00 0.00 85 1014.9
20260509071810 58 180 3.5 6.1 0.00 0.00 0.00 85 1014.6
20260509071610 58 163 2.6 9.6 0.00 0.00 0.00 85 1014.6
20260509071410 58 159 3.5 7.0 0.00 0.00 0.00 85 1014.6
20260509071210 57 153 6.1 7.0 0.00 0.00 0.00 85 1014.6
20260509071018 57 165 5.2 10.4 0.00 0.00 0.00 86 1014.9
20260509070809 57 137 7.0 10.4 0.00 0.00 0.00 86 1014.6
20260509070610 57 165 5.2 7.0 0.00 0.00 0.00 87 1014.9
20260509070410 56 162 5.2 6.1 0.00 0.00 0.00 88 1014.6
20260509070210 56 184 3.5 7.0 0.00 0.00 0.00 88 1014.6
20260509070036 55 159 4.3 9.6 0.00 0.00 0.00 89 1014.6
20260509065810 55 154 4.3 9.6 0.00 0.00 0.00 89 1014.6
20260509065211 54 144 4.3 7.8 0.00 0.00 0.00 91 1014.6
20260509064810 53 157 6.1 7.8 0.00 0.00 0.00 94 1014.9
20260509064610 53 157 5.2 6.1 0.00 0.00 0.00 94 1014.6
20260509064410 53 155 5.2 6.1 0.00 0.00 0.00 95 1014.9
20260509064210 53 176 5.2 5.2 0.00 0.00 0.00 96 1014.9
20260509063810 52 173 4.3 5.2 0.00 0.00 0.00 97 1014.6
20260509063610 52 173 5.2 5.2 0.00 0.00 0.00 97 1014.6
20260509063410 52 175 5.2 5.2 0.00 0.00 0.00 97 1014.6
20260509063210 51 167 5.2 7.0 0.00 0.00 0.00 97 1014.9
20260509062810 51 173 5.2 5.2 0.00 0.00 0.00 97 1014.6
20260509062610 51 170 5.2 5.2 0.00 0.00 0.00 97 1014.9
20260509062411 50 172 5.2 5.2 0.00 0.00 0.00 97 1014.6
20260509062210 50 171 5.2 5.2 0.00 0.00 0.00 97 1014.9
20260509062018 50 173 5.2 5.2 0.00 0.00 0.00 96 1014.6
20260509061810 50 178 5.2 5.2 0.00 0.00 0.00 96 1014.9
20260509061610 50 175 5.2 5.2 0.00 0.00 0.00 96 1014.9
20260509061410 50 172 4.3 5.2 0.00 0.00 0.00 96 1014.9
20260509061210 50 171 4.3 5.2 0.00 0.00 0.00 96 1014.9
20260509061017 49 175 4.3 5.2 0.00 0.00 0.00 96 1014.9
20260509060809 49 173 5.2 5.2 0.00 0.00 0.00 96 1014.9
20260509060610 49 176 5.2 5.2 0.00 0.00 0.00 96 1014.9
20260509060210 49 172 5.2 5.2 0.00 0.00 0.00 96 1014.6
20260509060032 49 171 5.2 6.1 0.00 0.00 0.00 96 1014.6
20260509055810 49 169 5.2 6.1 0.00 0.00 0.00 96 1014.6
20260509055410 48 178 5.2 6.1 0.00 0.00 0.00 96 1014.6
20260509055017 48 178 5.2 5.2 0.00 0.00 0.00 96 1014.6
20260509054610 48 172 4.3 5.2 0.00 0.00 0.00 96 1014.6
20260509054410 48 176 4.3 5.2 0.00 0.00 0.00 96 1014.6
20260509054017 48 169 4.3 5.2 0.00 0.00 0.00 96 1014.9
20260509053810 48 164 5.2 5.2 0.00 0.00 0.00 96 1014.6
20260509053610 48 169 5.2 5.2 0.00 0.00 0.00 96 1014.6
20260509053410 47 175 5.2 5.2 0.00 0.00 0.00 96 1014.6
20260509053210 47 176 4.3 6.1 0.00 0.00 0.00 96 1014.6
20260509052810 47 171 5.2 7.0 0.00 0.00 0.00 95 1014.6
20260509052610 47 173 7.0 7.0 0.00 0.00 0.00 95 1014.2
20260509052410 47 176 5.2 7.0 0.00 0.00 0.00 95 1014.6
20260509052210 47 175 6.1 7.0 0.00 0.00 0.00 95 1014.6
20260509051810 47 171 3.5 6.1 0.00 0.00 0.00 95 1014.6
20260509051610 47 177 5.2 5.2 0.00 0.00 0.00 95 1014.6
20260509051410 47 180 5.2 5.2 0.00 0.00 0.00 95 1014.6
20260509051210 47 182 3.5 5.2 0.00 0.00 0.00 95 1014.6
20260509050810 47 171 5.2 6.1 0.00 0.00 0.00 95 1014.6
20260509050610 47 181 5.2 7.0 0.00 0.00 0.00 95 1014.2
20260509050411 47 180 6.1 7.0 0.00 0.00 0.00 95 1014.2
20260509050210 47 176 6.1 7.0 0.00 0.00 0.00 95 1014.2
20260509050032 47 171 7.0 7.0 0.00 0.00 0.00 95 1014.2
20260509045810 47 173 5.2 6.1 0.00 0.00 0.00 95 1014.2
20260509045610 46 182 4.3 5.2 0.00 0.00 0.00 95 1014.2
20260509045410 46 178 4.3 5.2 0.00 0.00 0.00 95 1014.2
20260509045210 46 178 5.2 6.1 0.00 0.00 0.00 95 1014.6
20260509045021 46 172 5.2 6.1 0.00 0.00 0.00 95 1014.2
20260509044810 46 175 5.2 6.1 0.00 0.00 0.00 94 1014.2
20260509044410 46 174 6.1 6.1 0.00 0.00 0.00 94 1014.2
20260509044210 46 177 5.2 7.0 0.00 0.00 0.00 94 1014.2
20260509044016 46 174 5.2 7.0 0.00 0.00 0.00 94 1014.2
20260509043810 46 175 5.2 6.1 0.00 0.00 0.00 94 1014.2
20260509043610 46 176 5.2 6.1 0.00 0.00 0.00 94 1014.2
20260509043411 46 178 5.2 6.1 0.00 0.00 0.00 94 1014.2
20260509043212 46 179 5.2 6.1 0.00 0.00 0.00 94 1014.2
20260509043023 46 177 5.2 5.2 0.00 0.00 0.00 94 1014.2
20260509042810 46 178 5.2 7.0 0.00 0.00 0.00 94 1014.2
20260509042410 46 177 5.2 6.1 0.00 0.00 0.00 94 1014.2
20260509042210 46 180 5.2 6.1 0.00 0.00 0.00 94 1014.2
20260509042017 46 179 5.2 6.1 0.00 0.00 0.00 94 1014.2
20260509041610 46 176 5.2 5.2 0.00 0.00 0.00 94 1014.2
20260509041410 46 178 5.2 5.2 0.00 0.00 0.00 94 1014.2
20260509041209 46 178 5.2 6.1 0.00 0.00 0.00 94 1014.2
20260509041017 46 177 5.2 6.1 0.00 0.00 0.00 94 1014.6
20260509040411 46 179 5.2 5.2 0.00 0.00 0.00 93 1014.6
20260509040210 46 178 5.2 6.1 0.00 0.00 0.00 93 1014.2
20260509040034 46 174 5.2 6.1 0.00 0.00 0.00 93 1014.6
20260509035810 46 180 5.2 5.2 0.00 0.00 0.00 93 1014.2
20260509035610 46 178 5.2 6.1 0.00 0.00 0.00 93 1014.6
20260509035410 46 176 5.2 6.1 0.00 0.00 0.00 93 1014.6
20260509034610 46 178 5.2 6.1 0.00 0.00 0.00 93 1014.2
20260509034410 46 175 5.2 6.1 0.00 0.00 0.00 93 1014.2
20260509034211 46 177 5.2 6.1 0.00 0.00 0.00 93 1014.2
20260509034016 46 174 5.2 6.1 0.00 0.00 0.00 93 1014.6
20260509033810 46 179 5.2 6.1 0.00 0.00 0.00 93 1014.2
20260509033611 46 177 6.1 7.0 0.00 0.00 0.00 93 1014.2
20260509033024 47 176 5.2 6.1 0.00 0.00 0.00 93 1014.2
20260509032810 47 176 5.2 6.1 0.00 0.00 0.00 93 1014.2
20260509032410 47 179 5.2 6.1 0.00 0.00 0.00 93 1014.2
20260509032211 47 177 4.3 6.1 0.00 0.00 0.00 93 1014.2
20260509032018 47 174 5.2 6.1 0.00 0.00 0.00 93 1014.6
20260509031810 47 176 5.2 6.1 0.00 0.00 0.00 93 1014.2
20260509031610 47 176 5.2 6.1 0.00 0.00 0.00 93 1014.6
20260509031210 47 179 5.2 6.1 0.00 0.00 0.00 93 1014.6
20260509031016 47 177 5.2 6.1 0.00 0.00 0.00 93 1014.2
20260509030810 47 180 5.2 6.1 0.00 0.00 0.00 93 1014.6
20260509030610 47 174 6.1 6.1 0.00 0.00 0.00 93 1014.6
20260509030410 47 177 4.3 6.1 0.00 0.00 0.00 93 1014.2
20260509030210 47 177 5.2 6.1 0.00 0.00 0.00 92 1014.6
20260509030033 47 178 5.2 5.2 0.00 0.00 0.00 93 1014.6
20260509025810 47 180 5.2 5.2 0.00 0.00 0.00 93 1014.6
20260509025610 47 177 5.2 6.1 0.00 0.00 0.00 92 1014.6
20260509025410 47 177 5.2 6.1 0.00 0.00 0.00 92 1014.6
20260509025210 47 180 5.2 5.2 0.00 0.00 0.00 92 1014.6
20260509025016 47 178 5.2 6.1 0.00 0.00 0.00 92 1014.6
20260509024810 47 172 5.2 6.1 0.00 0.00 0.00 92 1014.6
20260509024610 47 176 5.2 6.1 0.00 0.00 0.00 92 1014.2
20260509024210 47 179 5.2 6.1 0.00 0.00 0.00 92 1014.9
20260509024016 47 173 5.2 6.1 0.00 0.00 0.00 92 1014.6
20260509023810 47 178 5.2 6.1 0.00 0.00 0.00 92 1014.6
20260509023610 47 175 5.2 6.1 0.00 0.00 0.00 92 1014.6
20260509023410 47 178 6.1 6.1 0.00 0.00 0.00 92 1014.6
20260509023210 47 176 5.2 6.1 0.00 0.00 0.00 92 1014.6
20260509023024 47 177 5.2 6.1 0.00 0.00 0.00 92 1014.6
20260509022810 47 177 5.2 5.2 0.00 0.00 0.00 92 1014.6
20260509022610 47 179 5.2 6.1 0.00 0.00 0.00 92 1014.6
20260509022019 48 177 5.2 7.0 0.00 0.00 0.00 92 1014.6
20260509021610 48 179 5.2 6.1 0.00 0.00 0.00 91 1014.6
20260509021410 48 175 5.2 6.1 0.00 0.00 0.00 91 1014.6
20260509021210 48 176 5.2 7.0 0.00 0.00 0.00 91 1014.6
20260509021016 48 178 5.2 6.1 0.00 0.00 0.00 91 1014.6
20260509020810 48 179 5.2 6.1 0.00 0.00 0.00 91 1014.6
20260509020610 48 179 6.1 6.1 0.00 0.00 0.00 91 1014.6
20260509020410 48 179 5.2 6.1 0.00 0.00 0.00 91 1014.6
20260509020211 48 177 5.2 6.1 0.00 0.00 0.00 91 1014.9